Home > Weather > Erie > Past weeks

Flag for USA Past Weather in Erie, Pennsylvania, USA — Yesterday and Last 2 Weeks

Now
72 °F

Partly cloudy.


Feels Like: 72 °F
Forecast: 72 / 81 °F
Wind: No wind

Location: Erie International Airport

Current Time: Jul 29, 2016 at 2:00:44 AM

Latest Report: Jul 29, 2016 at 12:51 AM


Visibility: 10 mi

Pressure: 29.89 "Hg

Humidity: 81%

Dew Point: 66 °F

Location of ErieLocation

Past Weather in Erie — Graph

°F

Erie Temperature Yesterday

Maximum temperature yesterday: 84 °F (at 12:51 PM)
Minimum temperature yesterday: 67 °F (at 6:51 AM)
Average temperature yesterday: 76 °F

High & Low Weather Summary for the Past Weeks

 TemperatureHumidityPressure
High88 °F (Jul 21, 12:51 PM)94% (Jul 25, 12:59 PM)30.27 "Hg (Jul 25, 12:59 PM)
Low58 °F (Jul 20, 4:51 AM)40% (Jul 17, 5:51 PM)29.80 "Hg (Jul 14, 5:51 AM)
Average75 °F68%30.01 "Hg
* Reported Jul 14 12:00 AM — Jul 29 12:51 AM, Erie, Weather by CustomWeather, © 2016

Note: Actual official high and low records may vary slightly from our data, if they occured in-between our weather recording intervals... More about our weather records

Advertising

Erie Weather History for the Previous 24 Hours

Scroll right to see more
 ConditionsComfort  
Time TempWeatherWind HumidityBarometerVisibility
12:51 AM
Fri, Jul 29
72 °FPartly cloudy.No wind81%29.89 "Hg10 mi
11:51 PM
Thu, Jul 28
72 °FPassing clouds.3 mph81%29.88 "Hg10 mi
10:51 PM73 °FClear.No wind79%29.89 "Hg10 mi
9:51 PM75 °FClear.3 mph69%29.89 "Hg10 mi
8:51 PM76 °FSunny.5 mph67%29.88 "Hg10 mi
7:51 PM79 °FOvercast.6 mph58%29.87 "Hg10 mi
6:51 PM80 °FSunny.6 mph60%29.86 "Hg10 mi
5:51 PM82 °FSunny.3 mph56%29.85 "Hg10 mi
4:51 PM81 °FSunny.9 mph62%29.85 "Hg10 mi
3:51 PM81 °FPassing clouds.9 mph62%29.86 "Hg10 mi
2:51 PM82 °FSunny.9 mph65%29.87 "Hg10 mi
1:51 PM83 °FSunny.12 mph63%29.88 "Hg10 mi
12:51 PM84 °FSunny.5 mph55%29.88 "Hg10 mi
11:51 AM83 °FSunny.3 mph53%29.90 "Hg10 mi
10:51 AM82 °FSunny.No wind53%29.90 "Hg10 mi
9:51 AM80 °FSunny.5 mph58%29.91 "Hg10 mi
8:51 AM76 °FSunny.3 mph64%29.92 "Hg10 mi
7:51 AM71 °FSunny.No wind73%29.92 "Hg10 mi
6:51 AM67 °FClear.3 mph79%29.91 "Hg10 mi
5:51 AM68 °FClear.3 mph76%29.90 "Hg10 mi
4:51 AM68 °FClear.3 mph73%29.90 "Hg10 mi
3:51 AM68 °FClear.No wind73%29.90 "Hg10 mi
2:51 AM70 °FClear.3 mph68%29.90 "Hg10 mi
Weather by CustomWeather, © 2016

See weather overviewHow to use our weather pages